Weather observations for the past three days for
Takotna, Tatalina LRRS Airport
Imperial (Metric)
Date Time (akdt) Wind (mph) Vis. (mi.) Weather Sky Cond. Temperature (ºF) Relative Humidity Wind Chill (°F) Heat Index (°F) Pressure Precipitation (in)
Air Dwpt 6 hour altimeter (in) sea level (mb) 1 hr 3 hr 6 hr
Max. Min.
21 09:55 Vrbl 2 10.00 Mostly Cloudy FEW120 BKN150 59.5 48.7 56.3 51.4 68% 29.93 1013.2
21 08:55 NE 2 10.00 Mostly Cloudy FEW100 BKN130 BKN160 54.5 47.7 78% 29.94 1013.7
21 07:55 Vrbl 3 10.00 Mostly Cloudy FEW130 BKN160 53.4 46.6 78% 29.94 1013.5
21 06:55 Vrbl 3 10.00 Partly Cloudy SCT150 54 45.5 73% 29.93 1013.4
21 05:55 Vrbl 5 10.00 Fair CLR 51.8 45.3 79% 29.93 1013.3
21 04:55 Vrbl 1 10.00 Fair CLR 55.8 45.3 68% 29.93 1013.1
21 03:55 Calm 10.00 Fair CLR 55.6 44.2 62.4 55.2 66% 29.93 1013.2
21 02:55 Vrbl 1 10.00 A Few Clouds FEW250 55.6 44.6 67% 29.93 1013.0
21 01:55 E 1 10.00 A Few Clouds FEW250 58.5 46 64% 29.93 1012.8
21 00:55 Calm 10.00 A Few Clouds FEW110 FEW200 57.9 46.2 65% 29.93 1012.8
20 23:55 Calm 10.00 Partly Cloudy SCT150 59.4 46.2 62% 29.92 1012.8
20 22:55 Calm 10.00 Fair CLR 59.9 45.9 60% 29.92 1012.7
20 21:55 Vrbl 7 10.00 Mostly Cloudy FEW100 BKN140 61.5 45.5 69.3 62.4 56% 29.92 1012.5
20 20:55 Vrbl 6 10.00 A Few Clouds FEW170 63 43 48% 29.92 1012.6
20 19:55 Vrbl 5 10.00 Partly Cloudy SCT130 63.3 44.1 50% 29.91 1012.6
20 18:55 Vrbl 5 10.00 Mostly Cloudy BKN120 63.3 43.9 49% 29.91 1012.5
20 17:55 NE 8 10.00 Fair CLR 63 44.8 52% 29.93 1013.3
20 16:55 E 14 G 21 10.00 Fair CLR 65.3 42.4 44% 29.92 1012.8
20 15:55 E 14 G 20 10.00 Mostly Cloudy BKN110 68.4 44.4 69.4 55.2 42% 29.92 1012.8
20 14:55 NE 8 10.00 A Few Clouds FEW055 68.7 45.1 43% 29.94 1013.2
20 13:55 E 6 G 18 10.00 Partly Cloudy SCT055 68.4 46.2 45% 29.96 1013.9
20 12:55 NE 7 10.00 A Few Clouds FEW047 67.6 44.1 43% 29.97 1014.4
20 11:55 E 10 10.00 Fair CLR 65.5 45 48% 29.98 1014.9
20 10:55 Vrbl 6 10.00 Mostly Cloudy BKN170 62.2 45.5 54% 30 1015.6
20 09:55 Vrbl 7 10.00 Fair CLR 61.2 43.5 57.7 50.4 52% 30.01 1015.9
20 08:55 Calm 10.00 A Few Clouds FEW170 57.4 45.5 65% 30.02 1016.1
20 07:55 Vrbl 1 10.00 Fair CLR 55.4 43.9 65% 30.03 1016.6
20 06:55 Vrbl 2 10.00 Fair CLR 53.1 42.3 67% 30.04 1017.0
20 05:55 Calm 10.00 Fair CLR 52 41.4 67% 30.04 1017.1
20 04:55 Vrbl 1 10.00 Fair CLR 50.7 41.4 70% 30.05 1017.3
20 03:55 E 2 10.00 Fair CLR 53.4 40.6 62.6 52 62% 30.04 1017.0 0.01
20 02:55 Vrbl 2 10.00 A Few Clouds FEW150 55.2 40.8 59% 30.04 1016.8
20 01:55 Calm 10.00 Partly Cloudy SCT160 55.2 41.7 61% 30.04 1017.1
20 00:55 Vrbl 3 10.00 A Few Clouds FEW130 FEW150 55.6 42.8 62% 30.04 1017.2 0.01
19 23:55 Vrbl 3 10.00 Mostly Cloudy BKN150 56.1 43.2 62% 30.04 1017.2
19 22:55 Vrbl 3 10.00 Mostly Cloudy BKN070 BKN120 56.5 44.8 65% 30.05 1017.4
19 21:55 NE 8 10.00 Light Showers Rain BKN055 57.9 43.3 64.9 59.7 59% 30.05 1017.4 0.01 0.01
19 20:55 Vrbl 1 10.00 Mostly Cloudy BKN070 BKN120 62.6 42.3 48% 30.03 1016.7
19 19:55 Vrbl 2 10.00 Partly Cloudy FEW095 SCT110 62.8 40.1 43% 30.03 1016.7
19 18:55 Vrbl 7 10.00 Light Showers Rain BKN044 BKN095 BKN110 60.3 43.7 55% 30.03 1016.7 0.01
19 17:55 NE 10 10.00 Mostly Cloudy BKN110 64.2 38.7 39% 30.03 1016.5
19 16:55 Vrbl 5 10.00 Mostly Cloudy SCT070 BKN100 63 38.1 40% 30.03 1016.6
19 15:55 NE 8 10.00 Mostly Cloudy BKN060 63 39 64 50.2 41% 30.03 1016.8
19 14:55 Vrbl 7 10.00 A Few Clouds FEW055 62.4 42.1 48% 30.04 1016.9
19 13:55 Vrbl 3 10.00 A Few Clouds FEW046 61 39.7 46% 30.05 1017.2
19 12:55 Vrbl 6 10.00 A Few Clouds FEW034 57.6 42.1 56% 30.05 1017.3
19 11:55 Vrbl 1 10.00 A Few Clouds FEW032 55.2 43 64% 30.05 1017.4
19 10:55 Vrbl 5 10.00 Mostly Cloudy BKN120 53.6 43.5 69% 30.05 1017.4
19 09:55 Vrbl 2 10.00 Mostly Cloudy BKN110 51.4 43.2 53.1 49.1 73% 30.05 1017.3
19 08:55 Vrbl 1 10.00 Mostly Cloudy SCT085 BKN120 50 43 77% 30.05 1017.3
19 07:55 E 5 10.00 Mostly Cloudy BKN065 50 43.3 78% 49 30.03 1016.8
19 06:55 Vrbl 7 10.00 Mostly Cloudy SCT060 BKN100 49.5 42.1 76% 47 30.03 1016.8
19 05:55 Vrbl 6 10.00 Mostly Cloudy BKN065 BKN180 49.6 42.1 75% 48 30.03 1016.4
19 04:55 Vrbl 7 10.00 Mostly Cloudy BKN080 BKN170 50.9 41.5 70% 30.02 1016.1
Date Time (akdt) Wind (mph) Vis. (mi.) Weather Sky Cond. Air Dwpt Max. Min. Relative Humidity Wind Chill (°F) Heat Index (°F) altimeter (in) sea level (mb) 1 hr 3 hr 6 hr
6 hour
Temperature (ºF) Pressure Precipitation (in)